Home > Weather > Loughton > Past weeks

Flag for United Kingdom Past Weather in Loughton, England, United Kingdom — Yesterday and Last 2 Weeks

Now
56 °F

Cool.


Feels Like: 56 °F
Forecast: 48 / 63 °F
Wind: 2 mph from Northeast

Location: Gravesend-Broadness

Current Time: May 26, 2016 at 9:53:57 AM

Latest Report: May 26, 2016 at 9:00 AM


Visibility: N/A

Pressure: 30.02 "Hg

Humidity: 70%

Dew Point: 47 °F

Location of LoughtonLocation

Past Weather in Loughton — Graph

°F

Loughton Temperature Yesterday

Maximum temperature yesterday: 54 °F (at 3:00 PM)
Minimum temperature yesterday: 48 °F (at 6:00 AM)
Average temperature yesterday: 51 °F

High & Low Weather Summary for the Past Weeks

 TemperatureHumidityPressure
High72 °F (May 12, 2:00 PM)99% (May 11, 8:00 AM)30.20 "Hg (May 11, 8:00 AM)
Low36 °F (May 15, 4:00 AM)39% (May 15, 5:00 PM)29.55 "Hg (May 12, 5:00 AM)
Average56 °F75%29.91 "Hg
* Reported May 11 8:00 AM — May 26 8:00 AM, Loughton, Weather by CustomWeather, © 2016

Note: Actual official high and low records may vary slightly from our data, if they occured in-between our weather recording intervals... More about our weather records

Advertising

Loughton Weather History for the Previous 24 Hours

Scroll right to see more
 ConditionsComfort  
Time TempWeatherWind HumidityBarometerVisibility
8:00 AM
Thu, May 26
53 °FCool.1 mph90%30.02 "HgN/A
7:00 AM47 °FCool.2 mph99%30.02 "HgN/A
6:00 AM41 °FQuite cool.2 mph98%30.01 "HgN/A
5:00 AM41 °FQuite cool.5 mph95%30.01 "HgN/A
4:00 AM43 °FQuite cool.2 mph90%30.01 "HgN/A
3:00 AM48 °FCool.1 mph84%30.00 "HgN/A
2:00 AM51 °FCool.3 mph85%30.01 "HgN/A
1:00 AM51 °FCool.3 mph85%30.01 "HgN/A
12:00 AM52 °FCool.3 mph83%30.01 "HgN/A
11:00 PM
Wed, May 25
52 °FCool.2 mph83%30.01 "HgN/A
10:00 PM51 °FCool.2 mph85%30.02 "HgN/A
9:00 PM51 °FCool.3 mph88%30.01 "HgN/A
8:00 PM52 °FCool.5 mph86%30.01 "HgN/A
7:00 PM53 °FCool.3 mph84%30.01 "HgN/A
6:00 PM52 °FCool.5 mph85%30.01 "HgN/A
5:00 PM53 °FCool.7 mph79%30.01 "HgN/A
4:00 PM53 °FCool.5 mph77%30.01 "HgN/A
3:00 PM54 °FCool.6 mph74%30.02 "HgN/A
2:00 PM53 °FCool.6 mph79%30.02 "HgN/A
1:00 PM53 °FCool.8 mph77%30.03 "HgN/A
12:00 PM51 °FCool.7 mph81%30.04 "HgN/A
11:00 AM50 °FCool.6 mph88%30.05 "HgN/A
10:00 AM51 °FCool.7 mph87%30.06 "HgN/A
9:00 AM50 °FCool.8 mph83%30.06 "HgN/A
Weather by CustomWeather, © 2016

See weather overviewHow to use our weather pages